Winfield, KS

10:22 AM CDT on July 25, 2016 (GMT -0500)
Strother

Weather History for KWLD - November, 2012

Change the Weather History Date:

Tuesday, November 6, 2012

  Actual Average Record
Temperature  
Mean Temperature 49 °F -  
Max Temperature 66 °F 58 °F 77 °F (2001)
Min Temperature 32 °F 40 °F 28 °F (1997)
Degree Days  
Heating Degree Days 16    
Moisture  
Dew Point 33 °F    
Average Humidity 63    
Maximum Humidity 96    
Minimum Humidity 28    
Precipitation  
Precipitation 0.00 in - - ()
Sea Level Pressure  
Sea Level Pressure 30.12 in    
Wind  
Wind Speed 11 mph (NNW)    
Max Wind Speed 17 mph    
Max Gust Speed 25 mph    
Visibility 10 miles    
Events      
Averages and records for this station are not official NWS values.
T = Trace of Precipitation, MM = Missing Value Source: NWS Daily Summary

Daily Weather History Graph

Daily Weather History Graph

Search for Another Location

Airport or City:

Trip Planner

Search our weather history database for the weather conditions in past years. The results will help you decide how hot, cold, wet, or windy it might be!

Date:

Astronomy

Nov. 06, 2012 Rise Set
Actual Time 6:58 AM CST 5:24 PM CST
Civil Twilight 6:30 AM CST 5:52 PM CST
Nautical Twilight 5:59 AM CST 6:23 PM CST
Astronomical Twilight 5:29 AM CST 6:53 PM CST
Moon No Moon Rise 12:52 PM CST (11/6)
Length of Visible Light 11h 21m
Length of Day
10h 26m
Waning Gibbous, 53% of the Moon is Illuminated
Nov 6
Waning Gibbous
Nov 6
Last Quarter
Nov 13
New
Nov 20
First Quarter
Nov 28
Full

Hourly Weather History & Observations

Time (CST) Temp. Windchill Dew Point Humidity Pressure Visibility Wind Dir Wind Speed Gust Speed Precip Events Conditions
12:54 AM 39.9 °F - 36.0 °F 86% 30.12 in 10.0 mi North - - N/A   Mostly Cloudy
1:54 AM 36.0 °F - 34.0 °F 93% 30.12 in 10.0 mi North - - N/A   Clear
2:54 AM 33.1 °F - 32.0 °F 96% 30.14 in 9.0 mi North - - N/A   Clear
3:54 AM 33.1 °F - 32.0 °F 96% 30.13 in 10.0 mi North - - N/A   Scattered Clouds
4:54 AM 34.0 °F - 33.1 °F 96% 30.11 in 9.0 mi North - - N/A   Clear
5:54 AM 35.1 °F - 34.0 °F 96% 30.12 in 10.0 mi North - - N/A   Clear
6:54 AM 32.0 °F - 30.9 °F 96% 30.12 in 8.0 mi North - - N/A   Partly Cloudy
7:54 AM 37.9 °F - 36.0 °F 93% 30.14 in 8.0 mi North - - N/A   Clear
8:54 AM 45.0 °F - 39.0 °F 80% 30.14 in 10.0 mi North - - N/A   Clear
9:54 AM 51.1 °F - 39.0 °F 63% 30.12 in 10.0 mi North - - N/A   Clear
10:54 AM 57.0 °F - 37.9 °F 49% 30.12 in 10.0 mi North - - N/A   Clear
11:54 AM 61.0 °F - 39.0 °F 44% 30.12 in 10.0 mi North - - N/A   Clear
12:54 PM 64.9 °F - 37.0 °F 36% 30.09 in 10.0 mi North - - N/A   Clear
1:54 PM 66.9 °F - 33.1 °F 28% 30.08 in 10.0 mi North 17.3 mph 25.3 mph N/A   Clear
2:54 PM 66.9 °F - 33.1 °F 28% 30.08 in 10.0 mi North 12.7 mph 20.7 mph N/A   Clear
3:54 PM 64.9 °F - 33.1 °F 31% 30.09 in 10.0 mi NNW 12.7 mph - N/A   Clear
4:54 PM 62.1 °F - 30.0 °F 30% 30.10 in 10.0 mi NNW 10.4 mph - N/A   Clear
5:54 PM 52.0 °F - 30.0 °F 43% 30.12 in 10.0 mi NW 8.1 mph - N/A   Clear
6:54 PM 50.0 °F - 30.0 °F 46% 30.14 in 10.0 mi NW 5.8 mph - N/A   Clear
7:54 PM 46.9 °F - 30.0 °F 52% 30.15 in 10.0 mi NW 5.8 mph - N/A   Clear
8:54 PM 46.0 °F 42.5 °F 30.0 °F 54% 30.16 in 10.0 mi WNW 6.9 mph - N/A   Clear
9:54 PM 46.0 °F 41.9 °F 28.0 °F 50% 30.16 in 10.0 mi North 8.1 mph - N/A   Clear
10:54 PM 43.0 °F 41.3 °F 28.0 °F 56% 30.15 in 10.0 mi NW 3.5 mph - N/A   Clear
11:54 PM 37.9 °F - 27.0 °F 65% 30.16 in 10.0 mi Calm Calm - N/A   Clear